Find Starlink 30401

NORAD ID: 57818 Int'l Des: 2023-138 Owner: SPXS Country: US Constellation: starlink operational
LEOCIRCULAR

当前视图

正在加载3D地球...

About Starlink 30401

Starlink 30401 (NORAD 57818) is a starlink constellation satellite (v2 mini) launched Sep 9, 2023 by SPXS of US. It operates in LEO, CIRCULAR orbit with a mass of 730.00 kg.

关于 Starlink 30401

正在加载描述...

即将过境

Passes for default location (London). Set your location on the main map for personalized predictions.

高度历史

Loading altitude history...

两行轨道根数

1 57818U 23138L 26171.27557638 .00000823 00000-0 39428-4 0 9999
2 57818 43.0056 15.1538 0001407 265.1799 94.8892 15.27580976154328
Epoch: Jun 20, 2026 • Age: 13 hours

当前状态

高度 482.9 km
速度 7.63 km/s
星下点 -0.49°S, 15.83°W
发射日期 Sep 9, 2023
运行时间 2.7 years
类型 internet

技术详情

分类 Payload
质量 730.00 kg
干质量 700.00 kg
总质量 730.00 kg
长度 0.30 m
直径 4.10 m
跨度 29.00 m
形状 Box + pan
制造商 SPXS
平台类型 Starlink V2M
阶段状态 In Orbit
所有者/国家 SPXS/US

Most Searched